TimeWET,TemperatureF,Dew PointF,Humidity,Sea Level PressureIn,VisibilityMPH,Wind Direction,Wind SpeedMPH,Gust SpeedMPH,PrecipitationIn,Events,Conditions,WindDirDegrees,DateUTC
12:00 AM,60.8,55.4,82,30.12,6.2,West,11.5,-,N/A,,Mostly Cloudy,270,2012-09-29 23:00:00
1:00 AM,63,55,69,30.09,6,NW,6.9,,,,Partly Cloudy,320,2012-09-30 00:00:00
1:00 AM,62.6,-9999,N/A,-9999,6.2,NW,6.9,-,N/A,,Mostly Cloudy,320,2012-09-30 00:00:00
3:00 AM,61,60,93,30.09,4,NW,6.9,,,Rain,Light Rain,320,2012-09-30 03:00:00
3:00 AM,60.8,59.0,94,30.12,3.7,NW,6.9,-,N/A,,Unknown,320,2012-09-30 03:00:00
4:00 AM,60.8,59.0,94,30.12,3.7,WNW,6.9,-,N/A,,Mostly Cloudy,300,2012-09-30 04:00:00
5:00 AM,60.8,59.0,94,30.12,3.7,West,4.6,-,N/A,,Mostly Cloudy,270,2012-09-30 05:00:00
6:00 AM,61,59,92,30.09,4,West,4.6,,,Rain,Light Rain,280,2012-09-30 06:00:00
6:00 AM,60.8,59.0,94,30.12,3.7,West,4.6,-,N/A,Rain,Rain,280,2012-09-30 06:00:00
7:00 AM,60.8,57.2,88,30.12,3.7,WSW,4.6,-,N/A,,Mostly Cloudy,240,2012-09-30 07:00:00
8:00 AM,60.8,59.0,94,30.12,5.0,SW,5.8,-,N/A,,Mostly Cloudy,220,2012-09-30 08:00:00
9:00 AM,64,59,77,30.11,6,WSW,4.6,,,,Partly Cloudy,250,2012-09-30 09:00:00
9:00 AM,64.4,59.0,83,30.15,6.2,WSW,4.6,-,N/A,,Mostly Cloudy,250,2012-09-30 09:00:00
10:00 AM,66.2,59.0,78,30.15,6.2,WNW,4.6,-,N/A,,Mostly Cloudy,300,2012-09-30 10:00:00
11:00 AM,68.0,57.2,68,30.15,6.2,NNW,5.8,-,N/A,,Mostly Cloudy,340,2012-09-30 11:00:00
12:00 PM,69.8,57.2,64,30.15,6.2,North,4.6,-,N/A,,Mostly Cloudy,350,2012-09-30 12:00:00
1:00 PM,68.0,59.0,73,30.12,6.2,NNE,8.1,-,N/A,,Mostly Cloudy,30,2012-09-30 13:00:00
2:00 PM,69.8,60.8,73,30.12,6.2,NE,8.1,-,N/A,,Mostly Cloudy,40,2012-09-30 14:00:00
3:00 PM,69,60,65,30.05,6,NE,6.9,,,,Mostly Cloudy,40,2012-09-30 15:00:00
3:00 PM,68.0,59.0,73,30.12,6.2,NE,6.9,-,N/A,,Mostly Cloudy,40,2012-09-30 15:00:00
4:00 PM,69.8,60.8,73,30.09,6.2,ENE,6.9,-,N/A,,Mostly Cloudy,70,2012-09-30 16:00:00
5:00 PM,68.0,59.0,73,30.09,6.2,ENE,4.6,-,N/A,,Mostly Cloudy,70,2012-09-30 17:00:00
6:00 PM,67,60,72,30.05,6,East,4.6,,,,Mostly Cloudy,80,2012-09-30 18:00:00
6:00 PM,68.0,60.8,78,30.09,6.2,East,4.6,-,N/A,,Mostly Cloudy,80,2012-09-30 18:00:00
7:00 PM,64.4,59.0,83,30.12,6.2,SE,4.6,-,N/A,,Mostly Cloudy,130,2012-09-30 19:00:00
8:00 PM,62.6,59.0,88,30.15,6.2,SE,6.9,-,N/A,,Mostly Cloudy,140,2012-09-30 20:00:00
9:00 PM,61,57,84,30.13,6,SE,4.6,,,,Mostly Cloudy,140,2012-09-30 21:00:00
9:00 PM,60.8,57.2,88,30.15,6.2,SE,4.6,-,N/A,,Mostly Cloudy,140,2012-09-30 21:00:00
10:00 PM,59.0,57.2,94,30.15,6.2,SE,4.6,-,N/A,,Scattered Clouds,140,2012-09-30 22:00:00